Weather History for Hazlehurst, GA

Change the Weather History Date:

Saturday, January 19, 2013

  Actual Average Record
Temperature  
Mean Temperature 46 °F -  
Max Temperature 59 °F 72 °F 72 °F (2014)
Min Temperature 34 °F 42 °F 34 °F (2013)
Degree Days  
Heating Degree Days 18    
Moisture  
Dew Point 38 °F    
Average Humidity 76    
Maximum Humidity 100    
Minimum Humidity 57    
Precipitation  
Precipitation 0.00 in - - ()
Sea Level Pressure  
Sea Level Pressure 30.35 in    
Wind  
Wind Speed 3 mph (NE)    
Max Wind Speed 7 mph    
Max Gust Speed -    
Visibility 10 miles    
Events      
Averages and records for this station are not official NWS values.
T = Trace of Precipitation, MM = Missing Value Source: NWS Daily Summary

Daily Weather History Graph

Daily Weather History Graph

Search for Another Location

Airport:

Trip Planner

Search our weather history database for the weather conditions in past years. The results will help you decide how hot, cold, wet, or windy it might be!

Date:

Astronomy

Jan. 19, 2013 Rise Set
Actual Time 7:30 AM EST 5:53 PM EST
Civil Twilight 7:03 AM EST 6:19 PM EST
Nautical Twilight 6:34 AM EST 6:49 PM EST
Astronomical Twilight 6:04 AM EST 7:18 PM EST
Moon 12:14 PM EST (1/19) 1:08 AM EST (1/19)
Length of Visible Light 11h 15m
Length of Day
10h 22m
First Quarter, 57% of the Moon is Illuminated
Jan 19
First Quarter
Jan 26
Full
Feb 3
Last Quarter
Feb 10
New
Feb 17
First Quarter

Hourly Weather History & Observations

Time (EST) Temp. Windchill Dew Point Humidity Pressure Visibility Wind Dir Wind Speed Gust Speed Precip Events Conditions
12:15 AM 39.7 °F 36.5 °F 28.2 °F 63% 30.46 in 10.0 mi ENE 4.6 mph - N/A   Clear
12:35 AM 39.2 °F 35.9 °F 28.4 °F 65% 30.45 in 10.0 mi ENE 4.6 mph - N/A   Clear
12:55 AM 38.8 °F 35.4 °F 28.4 °F 66% 30.44 in 10.0 mi ENE 4.6 mph - N/A   Clear
1:15 AM 38.1 °F 33.7 °F 28.6 °F 69% 30.44 in 10.0 mi NE 5.8 mph - N/A   Clear
1:35 AM 37.8 °F 35.3 °F 28.6 °F 69% 30.44 in 10.0 mi ENE 3.5 mph - N/A   Clear
1:55 AM 37.0 °F 34.5 °F 28.9 °F 73% 30.43 in 10.0 mi ENE 3.5 mph - N/A   Clear
2:15 AM 36.5 °F 33.9 °F 28.8 °F 74% 30.43 in 10.0 mi ENE 3.5 mph - N/A   Clear
2:35 AM 36.1 °F 32.3 °F 28.8 °F 75% 30.42 in 10.0 mi NE 4.6 mph - N/A   Clear
2:55 AM 36.5 °F 31.8 °F 28.6 °F 73% 30.42 in 10.0 mi ENE 5.8 mph - N/A   Clear
3:15 AM 36.9 °F 32.2 °F 28.4 °F 71% 30.42 in 10.0 mi NE 5.8 mph - N/A   Clear
3:35 AM 36.7 °F 34.1 °F 28.6 °F 72% 30.41 in 10.0 mi NE 3.5 mph - N/A   Clear
3:55 AM 36.7 °F 32.9 °F 28.8 °F 73% 30.41 in 10.0 mi ENE 4.6 mph - N/A   Clear
4:15 AM 36.7 °F 34.1 °F 28.8 °F 73% 30.41 in 10.0 mi NE 3.5 mph - N/A   Clear
4:35 AM 36.5 °F 33.9 °F 28.8 °F 74% 30.40 in 10.0 mi NE 3.5 mph - N/A   Clear
4:55 AM 36.5 °F 32.7 °F 28.9 °F 74% 30.40 in 10.0 mi NE 4.6 mph - N/A   Clear
5:15 AM 36.5 °F 32.7 °F 29.1 °F 75% 30.41 in 10.0 mi ENE 4.6 mph - N/A   Scattered Clouds
5:35 AM 36.1 °F 32.3 °F 29.1 °F 76% 30.40 in 10.0 mi East 4.6 mph - N/A   Scattered Clouds
5:55 AM 36.1 °F 33.5 °F 29.5 °F 77% 30.40 in 10.0 mi ENE 3.5 mph - N/A   Clear
6:15 AM 35.6 °F 32.8 °F 29.5 °F 78% 30.40 in 10.0 mi NE 3.5 mph - N/A   Clear
6:35 AM 35.1 °F 32.2 °F 29.7 °F 81% 30.41 in 10.0 mi ENE 3.5 mph - N/A   Clear
7:35 AM 34.7 °F 31.8 °F 30.0 °F 83% 30.42 in 10.0 mi NE 3.5 mph - N/A   Clear
7:55 AM 34.9 °F - 30.2 °F 83% 30.42 in 10.0 mi Calm Calm - N/A   Clear
8:15 AM 35.8 °F - 30.9 °F 82% 30.43 in 10.0 mi Calm Calm - N/A   Clear
8:55 AM 36.9 °F 33.1 °F 31.3 °F 80% 30.44 in 10.0 mi NNE 4.6 mph - N/A   Scattered Clouds
9:15 AM 37.9 °F 34.4 °F 31.8 °F 79% 30.44 in 10.0 mi NNE 4.6 mph - N/A   Mostly Cloudy
9:35 AM 40.1 °F 36.9 °F 32.4 °F 74% 30.45 in 10.0 mi ENE 4.6 mph - N/A   Overcast
10:35 AM 47.5 °F - 34.9 °F 62% 30.44 in 10.0 mi NNE 6.9 mph - N/A   Scattered Clouds
10:55 AM 49.6 °F - 35.8 °F 59% 30.44 in 10.0 mi East 5.8 mph - N/A   Scattered Clouds
11:15 AM 50.9 °F - 36.7 °F 58% 30.43 in 10.0 mi ENE 5.8 mph - N/A   Scattered Clouds
11:35 AM 51.6 °F - 37.4 °F 58% 30.41 in 10.0 mi ENE 5.8 mph - N/A   Mostly Cloudy
11:55 AM 52.3 °F - 37.9 °F 58% 30.40 in 10.0 mi ENE 6.9 mph - N/A   Overcast
12:15 PM 52.3 °F - 38.7 °F 60% 30.38 in 10.0 mi ENE 4.6 mph - N/A   Overcast
12:35 PM 52.7 °F - 38.8 °F 59% 30.36 in 10.0 mi Calm Calm - N/A   Overcast
12:55 PM 53.4 °F - 39.9 °F 60% 30.35 in 10.0 mi ENE 3.5 mph - N/A   Overcast
1:15 PM 53.8 °F - 40.6 °F 61% 30.33 in 10.0 mi Calm Calm - N/A   Overcast
1:35 PM 54.9 °F - 41.5 °F 61% 30.31 in 10.0 mi Calm Calm - N/A   Overcast
2:15 PM 57.0 °F - 43.0 °F 59% 30.29 in 10.0 mi Calm Calm - N/A   Unknown
2:55 PM 59.4 °F - 44.2 °F 57% 30.28 in 10.0 mi Calm Calm - N/A   Overcast
3:15 PM 59.2 °F - 44.4 °F 58% 30.27 in 10.0 mi Calm Calm - N/A   Overcast
3:55 PM 59.5 °F - 45.3 °F 59% 30.27 in 10.0 mi Calm Calm - N/A   Scattered Clouds
4:15 PM 59.0 °F - 45.3 °F 60% 30.27 in 10.0 mi Calm Calm - N/A   Scattered Clouds
4:35 PM 58.6 °F - 45.5 °F 62% 30.26 in 10.0 mi Calm Calm - N/A   Scattered Clouds
4:55 PM 58.5 °F - 45.7 °F 62% 30.26 in 10.0 mi Calm Calm - N/A   Scattered Clouds
5:15 PM 57.4 °F - 47.1 °F 69% 30.26 in 10.0 mi Calm Calm - N/A   Mostly Cloudy
5:35 PM 56.1 °F - 47.7 °F 73% 30.26 in 10.0 mi Calm Calm - N/A   Scattered Clouds
5:55 PM 54.1 °F - 48.2 °F 80% 30.25 in 10.0 mi Calm Calm - N/A   Clear
6:15 PM 52.3 °F - 47.8 °F 85% 30.25 in 10.0 mi Calm Calm - N/A   Clear
6:35 PM 51.3 °F - 47.1 °F 86% 30.25 in 10.0 mi Calm Calm - N/A   Clear
6:55 PM 50.9 °F - 46.6 °F 85% 30.26 in 10.0 mi Calm Calm - N/A   Clear
7:15 PM 49.3 °F - 45.9 °F 88% 30.26 in 10.0 mi Calm Calm - N/A   Clear
7:35 PM 48.2 °F - 45.3 °F 90% 30.26 in 10.0 mi Calm Calm - N/A   Clear
7:55 PM 46.6 °F - 45.3 °F 95% 30.27 in 10.0 mi Calm Calm - N/A   Clear
8:15 PM 46.2 °F - 45.3 °F 97% 30.27 in 10.0 mi Calm Calm - N/A   Clear
8:35 PM 45.5 °F - 44.8 °F 97% 30.27 in 10.0 mi Calm Calm - N/A   Clear
8:55 PM 45.7 °F - 45.0 °F 97% 30.28 in 10.0 mi Calm Calm - N/A   Clear
9:15 PM 45.7 °F - 45.5 °F 99% 30.27 in 10.0 mi Calm Calm - N/A   Clear
9:55 PM 47.1 °F - 45.1 °F 93% 30.26 in 10.0 mi Calm Calm - N/A   Clear
10:15 PM 45.9 °F - 44.8 °F 96% 30.27 in 10.0 mi Calm Calm - N/A   Scattered Clouds
10:35 PM 45.0 °F - 45.1 °F 100% 30.27 in 10.0 mi Calm Calm - N/A   Mostly Cloudy
10:55 PM 45.5 °F - 45.1 °F 99% 30.26 in 3.0 mi Calm Calm - N/A   Mostly Cloudy
11:15 PM 45.7 °F - 45.0 °F 97% 30.25 in 2.5 mi Calm Calm - N/A   Scattered Clouds
11:35 PM 44.6 °F - 44.4 °F 99% 30.25 in 3.0 mi Calm Calm - N/A   Clear
11:55 PM 43.2 °F - 43.3 °F 100% 30.25 in 4.0 mi Calm Calm - N/A   Clear